Location: Caltech
(34.1382°N, 118.1253°W)
Time: 13:18:58
(UTC-07:00)

ASTRO E2 - Visible Passes

Search period start: 01 October 2014 00:00
Search period end: 11 October 2014 00:00
Orbit: 534 x 541 km, 31.4° (Epoch: 01 October)

Date Brightness Start Highest point End Pass type
(mag) Time Alt. Az. Time Alt. Az. Time Alt. Az.
01 Oct 2.9 19:55:49 10° WSW 19:59:52 59° S 20:00:58 42° ESE visible
02 Oct 3.0 19:45:03 10° W 19:49:07 59° S 19:50:46 32° ESE visible
02 Oct 6.0 21:26:04 10° W 21:26:05 10° W 21:26:05 10° W visible
03 Oct 3.0 19:34:17 10° W 19:38:20 58° S 19:40:33 25° ESE visible
03 Oct 5.7 21:15:22 10° W 21:15:52 13° WSW 21:15:52 13° WSW visible
04 Oct 3.2 19:23:30 10° W 19:27:32 55° S 19:30:21 18° ESE visible
04 Oct 5.5 21:04:42 10° WSW 21:05:40 15° WSW 21:05:40 15° WSW visible
05 Oct 3.3 19:12:43 10° W 19:16:43 51° S 19:20:10 13° ESE visible
05 Oct 5.3 20:54:05 10° WSW 20:55:29 17° WSW 20:55:29 17° WSW visible
06 Oct 3.5 19:01:55 10° W 19:05:53 46° SSW 19:09:49 10° ESE visible
06 Oct 5.1 20:43:31 10° WSW 20:45:21 17° SW 20:45:21 17° SW visible
07 Oct 3.8 18:51:08 10° W 18:55:01 40° SSW 18:58:53 10° ESE visible
07 Oct 5.2 20:33:05 10° WSW 20:35:16 15° SSW 20:35:16 15° SSW visible
08 Oct 5.3 20:22:56 10° SW 20:24:35 12° SSW 20:25:15 12° SSW visible
